Home   Weather   Achern   Past weeks

Flag for Germany Past Weather in Achern, Baden-Württemberg, Germany — Yesterday and Last 2 Weeks

Now
27 °F

Clear.


Feels Like: 21 °F
Forecast: 24 / 41 °F
Wind: 5 mph from Southeast

Location: Karlsruhe - Baden Wurttemberg

Current Time: Dec 10, 2016 at 11:31:21 pm

Latest Report: Dec 10, 2016 at 10:50 pm


Visibility: 4 mi

Pressure: 30.24 "Hg

Humidity: 100%

Dew Point: 27 °F

Location of AchernLocation

Past Weather in Achern — Graph

°F

Achern Temperature Yesterday

Maximum temperature yesterday: 46 °F (at 1:50 pm)
Minimum temperature yesterday: 27 °F (at 4:50 am)
Average temperature yesterday: 35 °F

High & Low Weather Summary for the Past Weeks

 TemperatureHumidityPressure
High48 °F (Nov 25, 9:20 pm)100% (Nov 26, 9:20 am)30.60 "Hg (Nov 26, 9:20 am)
Low18 °F (Nov 30, 7:20 am)52% (Nov 29, 2:20 pm)30.04 "Hg (Nov 26, 4:50 am)
Average34 °F90%30.35 "Hg
* Reported Nov 25 9:20 pm — Dec 10 9:50 pm, Achern, Weather by CustomWeather, © 2016

Note: Actual official high and low records may vary slightly from our data, if they occured in-between our weather recording intervals... More about our weather records

Advertising

Achern Weather History for the Previous 24 Hours

Scroll right to see more
 ConditionsComfort  
Time TempWeatherWind HumidityBarometerVisibility
9:50 pm
Sat, Dec 10
28 °FClear.No wind100%30.27 "Hg4 mi
9:20 pm28 °FClear.3 mph100%30.27 "Hg5 mi
8:50 pm30 °FClear.2 mph100%30.27 "Hg10 mi
8:20 pm30 °FClear.3 mph100%30.27 "Hg10 mi
7:50 pm30 °FClear.2 mph100%30.27 "Hg10 mi
7:20 pm32 °FClear.2 mph100%30.30 "Hg10 mi
6:50 pm32 °FClear.1 mph100%30.30 "Hg10 mi
6:20 pm34 °FClear.2 mph93%30.30 "Hg10 mi
5:50 pm36 °FClear.1 mph93%30.30 "Hg10 mi
5:20 pm37 °FClear.3 mph87%30.30 "Hg10 mi
4:50 pm36 °FClear.5 mph87%30.30 "Hg10 mi
4:20 pm45 °FSunny.3 mph71%30.30 "Hg10 mi
3:50 pm45 °FSunny.3 mph71%30.30 "Hg10 mi
3:20 pm46 °FSunny.2 mph66%30.30 "Hg10 mi
2:50 pm46 °FSunny.2 mph66%30.30 "Hg10 mi
2:20 pm46 °FSunny.3 mph66%30.30 "Hg10 mi
1:50 pm45 °FSunny.3 mph71%30.33 "Hg10 mi
1:20 pm45 °FSunny.3 mph71%30.33 "Hg10 mi
12:50 pm45 °FSunny.3 mph71%30.33 "Hg10 mi
12:20 pm43 °FPassing clouds.5 mph71%30.36 "HgN/A
11:50 am41 °FSunny.6 mph76%30.36 "Hg10 mi
11:20 am39 °FSunny.6 mph81%30.36 "Hg10 mi
10:50 am37 °FSunny.6 mph87%30.36 "Hg10 mi
10:20 am36 °FSunny.7 mph93%30.36 "Hg10 mi
9:50 am34 °FSunny.2 mph100%30.36 "Hg10 mi
9:20 am28 °FSunny.2 mph100%30.36 "Hg10 mi
8:50 am27 °FSunny.1 mph100%30.36 "Hg10 mi
8:20 am28 °FSunny.No wind100%30.36 "Hg10 mi
7:50 am28 °FClear.2 mph100%30.36 "Hg10 mi
7:20 am30 °FClear.3 mph100%30.36 "Hg10 mi
6:50 am28 °FClear.3 mph100%30.36 "Hg10 mi
6:20 am27 °FClear.3 mph100%30.36 "Hg5 mi
5:50 am27 °FClear.3 mph100%30.36 "Hg4 mi
5:20 am27 °FClear.2 mph100%30.36 "Hg4 mi
4:50 am27 °FLight fog.1 mph100%30.36 "Hg3 mi
Weather by CustomWeather, © 2016

See weather overviewHow to use our weather pages